Powrót do katalogu

ARIANE 2 DEB

AktywnyGTO
NORAD 27594·DEBRIS·🇫🇷 France

Wystrzelony May 17, 1988 z Guiana Space Centre

Loading…

TLE

NieaktualneSource: Space-Track

Epoka: Sep 13, 2026, 14:08 UTC

1 27594U 88040D   26256.58890821  .00001299  00000-0  58905-2 0  9999
2 27594   7.5785 253.9718 7125269 282.9383  11.8783  2.37078720203754

Śledź ARIANE 2 DEB w czasie rzeczywistym z AllMySat

Download on the App Store